Regional Weather Roundup
Issued by NWS

Home | Current Version | Previous Version | Graphics & Text | Print | Product List | Glossary On
Versions: 1 2 3 4 5 6 7 8 9 10 11 12 13 14 15 16 17 18 19 20 21 22 23 24 25 26 27 28 29 30 31 32 33 34 35 36 37 38 39 40 41 42 43 44 45 46 47 48 49 50
000
ASUS43 KMPX 230510
RWRMN
WEATHER ROUNDUP FOR MINNESOTA
NATIONAL WEATHER SERVICE TWIN CITIES/CHANHASSEN MN
1200 AM CDT SUN APR 23 2017


NOTE: "FAIR" INDICATES FEW OR NO CLOUDS BELOW 12,000 FEET WITH NO
SIGNIFICANT WEATHER AND/OR OBSTRUCTIONS TO VISIBILITY. N/A MEANS
CURRENT SKY AND/OR WEATHER CONDITIONS ARE NOT AVAILABLE.

MNZ060>063-068>070-230600-
   Twin Cities Metro

CITY           SKY/WX    TMP DP  RH WIND       PRES   REMARKS
TWIN CITIES    CLEAR     56  36  47 CALM      30.09F
ST PAUL        CLEAR     50  43  77 CALM      30.10F
CRYSTAL        CLEAR     50  34  54 CALM      30.08F
BLAINE         CLEAR     54  36  50 SW5       30.08F
LAKEVILLE      CLEAR     54  36  50 SW5       30.10F
EDEN PRAIRIE   CLEAR     54  34  46 CALM      30.08F
SOUTH ST PAUL  CLEAR     51  38  61 CALM      30.09F
LAKE ELMO      FAIR      45  37  76 CALM      30.10S
$$
MNZ001>005-007-008-013>017-022>024-027-028-230600-
   Northwest Minnesota

CITY           SKY/WX    TMP DP  RH WIND       PRES   REMARKS
BEMIDJI        RAIN      36  34  92 N12       30.15S
HALLOCK        CLOUDY    32  23  69 N13       30.26S WCI  22
ROSEAU         CLOUDY    32  25  74 N7        30.24S WCI  26
WARROAD        CLOUDY    30  23  74 N10G17    30.24R WCI  21
THIEF RVR FALL CLOUDY    33  28  81 N16       30.22S WCI  23
CROOKSTON      MIX PCPN  34  32  93 N9        30.22F WCI  26
FOSSTON        FLURRIES  34  28  80 N13       30.18S WCI  25
DETROIT LAKES  PTCLDY    45  37  76 NE15G22   30.12R
MOORHEAD       MOCLDY    39  34  81 N21       30.16R
PARK RAPIDS    CLOUDY    43  35  73 N14G23    30.10R
MAHNOMEN       RAIN      36  34  92 NE22      30.13F
$$
MNZ006-009>011-018-025>026-230600-
   North Central Minnesota

CITY           SKY/WX    TMP DP  RH WIND       PRES   REMARKS
BAUDETTE       CLOUDY    34  26  72 N7        30.20S WCI  28
FLAG ISLAND    PTCLDY    34  25  69 N17       30.23R WCI  23
INTL FALLS     CLOUDY    34  30  85 N10       30.18R WCI  26
WASKISH        MIX PCPN  34  32  93 N9        30.20R WCI  26
BIG FORK       LGT RAIN  37  34  87 N6        30.15R
LONGVILLE      DRIZZLE   43  36  75 N12       30.11S
GRAND RAPIDS   LGT RAIN  41  37  86 N14       30.14R
CRANE LAKE     LGT RAIN  36  34  93 N6        30.15F
ORR            FLURRIES  37  34  87 MISG      30.10F
COOK           RAIN      39  36  87 N6        30.13R
WALKER         LGT RAIN  38  35  89 N8        30.14R
$$
MNZ012-019>021-037-230600-
   Northeast Minnesota

CITY           SKY/WX    TMP DP  RH WIND       PRES   REMARKS
DULUTH         PTCLDY    45  41  86 NE7       30.07R
ELY            LGT RAIN  39  36  87 N5        30.10R
HIBBING        LGT RAIN  41  38  89 N7        30.10R
EVELETH        LGT RAIN  42  37  81 N5        30.10F
DULUTH HARBOR  CLOUDY    43  39  87 NE12      30.08S
TWO HARBORS    PTCLDY    48  39  71 N3        30.07R
SILVER BAY     DRIZZLE   46  39  76 N5        30.06R
GRAND MARAIS     N/A     46  38  73 VRB3      30.06R
G MARAIS ARPRT CLOUDY    39  34  81 NW14G21   30.03R
$$
MNZ029>031-032-039>041-046>048-054>057-064-230600-
   West Central Minnesota

CITY           SKY/WX    TMP DP  RH WIND       PRES   REMARKS
FERGUS FALLS   PTCLDY    45  39  81 N9        30.06R
WHEATON        CLEAR     43  37  81 NW8       30.12R
MORRIS         CLEAR     52  39  62 SW10      30.05F
ALEXANDRIA     PTCLDY    52  38  58 SW9       30.06F
ELBOW LAKE     FAIR      46  43  90 NW7       30.06S
WADENA         MOCLDY    48  39  71 NE16G24   30.07R
GLENWOOD       PTCLDY    52  39  62 SW10      30.06F
APPLETON       CLEAR     55  37  50 SW12      30.07F
BENSON         CLEAR     54  36  50 W8        30.09S
ORTONVILLE     CLEAR     52  39  62 SW3       30.07F
MADISON        PTCLDY    54  41  62 SW10      30.08F
WILLMAR        FAIR      52  39  62 SW9       30.10S
$$
MNZ033>034-036-042>043-049>051-058-059-230600-
   Central Minnesota

CITY           SKY/WX    TMP DP  RH WIND       PRES   REMARKS
ST CLOUD       CLEAR     50  39  66 S8        30.06F
SAUK CENTRE    FAIR      52  39  61 SW9       30.06S
PAYNESVILLE    CLEAR     55  36  48 SW9       30.08F
AITKIN         CLOUDY    52  37  58 N12       30.07R
PINE RIVER     CLOUDY    46  37  71 N14G23    30.13R
BRAINERD       CLOUDY    55  42  61 N15       30.06R
STAPLES        PTCLDY    52  39  62 NE9G18    30.06R
LONG PRAIRIE   FAIR      50  37  62 S6        30.05F
LITTLE FALLS   CLEAR     50  36  57 S3        30.04F
LITCHFIELD     CLEAR     52  39  62 CALM      30.10S
BUFFALO        CLEAR     48  39  69 CALM      30.09F
MAPLE LAKE     CLEAR     52  40  63 S3        30.09F
HUTCHINSON     CLOUDY    48  41  77 CALM      30.11S
$$
MNZ037-044-045-052-053-230600-
   East Central Minnesota

CITY           SKY/WX    TMP DP  RH WIND       PRES   REMARKS
PRINCETON      CLEAR     52  37  58 S3        30.06F
MORA           CLOUDY    50  36  57 SW3       30.06F
CAMBRIDGE      CLEAR     54  39  58 S5        30.05F
RUSH CITY      PTCLDY    51  35  54 S3        30.06F
MOOSE LAKE     CLOUDY    52  37  58 CALM      30.03S
HINCKLEY       FAIR      46  37  71 S3        30.04F
CLOQUET        PTCLDY    46  37  71 N9        30.07R
MCGREGOR       CLOUDY    48  41  76 N14G20    30.07R
$$
MNZ071>073-080-081-089-090-097-098-230600-
   Southwest Minnesota

CITY           SKY/WX    TMP DP  RH WIND       PRES   REMARKS
MONTEVIDEO     CLEAR     55  37  50 W7        30.09F
GRANITE FALLS  CLEAR     53  38  57 S12       30.11F
CANBY          CLEAR     54  38  55 SW8       30.11F
MARSHALL       CLEAR     51  37  58 SW10      30.12S
REDWOOD FALLS  CLEAR     53  35  50 SW8       30.11S
OLIVIA         CLEAR     50  36  57 SW6       30.09F
PIPESTONE      CLEAR     46  36  66 SW7       30.14S
WINDOM         CLEAR     50  36  57 SW6       30.14S
WORTHINGTON    CLEAR     52  35  52 SW12      30.15F
JACKSON        CLEAR     50  34  53 SW6       30.15S
TRACY          CLEAR     50  39  67 SW8       30.13S
SLAYTON        PTCLDY    48  37  67 SW12      30.14F
$$
MNZ065>067-074>077-082>085-091>093-230600-
   South Central Minnesota

CITY           SKY/WX    TMP DP  RH WIND       PRES   REMARKS
MANKATO        CLEAR     55  35  47 SW8       30.12S
NEW ULM        CLEAR     52  36  54 SW5       30.11F
ST JAMES       CLEAR     52  39  62 SW6       30.14S
FAIRMONT       CLEAR     51  39  63 SW8       30.14S
GLENCOE        CLEAR     49  42  76 CALM      30.10S
FARIBAULT      PTCLDY    46  39  76 S3        30.12S
OWATONNA       CLEAR     52  36  54 S7        30.12F
WASECA         CLEAR     50  36  57 CALM      30.14S
ALBERT LEA     CLEAR     52  41  66 SW3       30.13F
$$
MNZ078>079-086>088-094>096-230600-
   Southeast Minnesota

CITY           SKY/WX    TMP DP  RH WIND       PRES   REMARKS
ROCHESTER      CLEAR     47  38  71 SW9       30.13S
RED WING       CLEAR     46  37  71 CALM      30.10S
STANTON        CLEAR     48  39  72 S3        30.10F
DODGE CENTER   CLEAR     48  37  66 SW3       30.13S
WINONA         CLEAR     48  43  81 CALM      30.13R
AUSTIN         CLEAR     48  36  61 SW3       30.13S
PRESTON        CLEAR     48  33  55 SW8       30.14S
$$
ABBREVIATIONS USED IN REMARKS
   TC - TEMPERATURES IN CELSIUS
  WCI - WIND CHILL INDEX
   HX - HEAT INDEX
  VSB - VISIBILITY
$$



USA.gov is the U.S. government's official web portal to all federal, state and local government web resources and services.